Location: Boussy-Saint-Antoine
(48.6830°N, 2.5330°E)
Time: 12:30:37
(UTC+02:00)

KKS-1 - Visible Passes

Search period start: 07 August 2020 00:00
Search period end: 17 August 2020 00:00
Orbit: 637 x 649 km, 98.3° (Epoch: 06 August)

Date Brightness Start Highest point End Pass type
(mag) Time Alt. Az. Time Alt. Az. Time Alt. Az.
07 Aug ? 00:12:24 10° NW 00:13:47 11° NW 00:15:11 10° WNW visible
07 Aug ? 22:58:10 10° N 23:02:26 44° WNW 23:06:41 10° SW visible
08 Aug ? 21:46:07 10° NNE 21:50:21 39° E 21:54:32 10° SSE visible
08 Aug ? 23:22:57 10° N 23:26:44 27° WNW 23:30:30 10° WSW visible
09 Aug ? 22:10:24 10° NNE 22:14:53 67° ESE 22:19:21 10° S visible
09 Aug ? 23:48:00 10° NNW 23:50:57 18° WNW 23:53:54 10° W visible
10 Aug ? 22:34:52 10° N 22:39:21 73° WNW 22:43:49 10° SSW visible
11 Aug ? 00:13:46 10° NW 00:15:05 11° NW 00:16:25 10° WNW visible
11 Aug ? 22:59:28 10° N 23:03:44 43° WNW 23:07:59 10° SW visible
12 Aug ? 21:47:25 10° NNE 21:51:39 39° E 21:55:51 10° SSE visible
12 Aug ? 23:24:16 10° N 23:28:02 27° WNW 23:31:47 10° WSW visible
13 Aug ? 22:11:42 10° NNE 22:16:12 68° ESE 22:20:39 10° S visible
13 Aug ? 23:49:19 10° NNW 23:52:15 17° WNW 23:55:10 10° W visible
14 Aug ? 22:36:10 10° N 22:40:40 72° WNW 22:45:06 10° SSW visible
15 Aug ? 00:15:08 10° NW 00:16:23 11° NW 00:17:38 10° WNW visible
15 Aug ? 23:00:47 10° N 23:05:02 42° WNW 23:09:16 10° SW visible
16 Aug ? 21:48:43 10° NNE 21:52:58 40° E 21:57:10 10° SSE visible
16 Aug ? 23:25:35 10° N 23:29:20 27° WNW 23:33:04 10° WSW visible
